[[{"header":{"parameterUnit":"m.s-1","parameterCategory":1,"la1":30.2991,"la2":30.254,"lo1":-89.0895,"lo2":-89.0444,"dy":0.0017,"dx":0.0017,"nx":28,"ny":28,"refTime":"2023-07-22T09:00:00:Z","depth":0,"parameterNumber":2,"parameterNumberName":"U-component_of_WINDS"},"data":[0,0,0,0,0,0,0,0,0,0,0,0,0,0,0,0,0,0,0,0,0,0,0,0,0,0,0,0,0,0,0,0,0,0,0,0,0,0,0,0,0,0,0,0,0,0,0,0,0,0,0,0,0,0,0,0,0,0,4.3396,4.3398,0,4.354,4.3542,4.3543,4.3487,4.3484,4.348,4.3477,4.3627,4.3634,4.3641,0,0,0,0,0,0,0,0,0,0,0,0,0,4.3075,4.3081,4.3396,4.3398,4.34,4.354,4.3542,4.3544,4.3488,4.3484,4.3479,4.3476,4.3625,4.3633,4.3641,0,0,0,0,0,0,0,0,0,0,0,0,0,4.3216,4.3083,4.3396,4.3389,4.3389,4.354,4.3542,4.3544,4.3489,4.3483,4.3478,4.3474,4.3622,4.3632,4.3643,4.3809,0,0,4.3675,4.368,0,0,0,0,0,0,0,0,4.3208,4.3228,4.3388,4.3389,4.3391,4.349,4.3483,4.3633,4.349,4.3451,4.3477,4.3471,4.3586,4.3599,4.3637,4.3816,4.3823,4.3676,4.3683,4.3687,4.369,0,0,0,0,0,0,0,4.3199,4.3222,4.3453,4.339,4.3392,4.3379,4.3393,4.3512,4.3545,4.3454,4.345,4.3468,4.3585,4.3627,4.364,4.3825,4.3676,4.3685,4.3692,4.3696,4.4148,4.4153,0,0,0,0,0,0,4.3188,4.3214,4.3449,4.3458,4.3285,4.3389,4.3405,4.3464,4.3543,4.3551,4.3472,4.3465,4.3611,4.3628,4.3645,4.3845,4.3687,4.3697,4.3703,4.4142,4.4149,4.4155,0,0,0,0,0,0,4.3181,4.321,4.3443,4.3335,4.3363,4.34,4.3466,4.3469,4.351,4.3557,4.3563,4.3508,4.3608,4.363,4.3769,4.385,4.3702,4.3712,4.4136,4.4144,4.4152,4.4247,0,0,0,0,0,0,4.3172,4.3208,4.3271,4.3337,4.3369,4.3564,4.3471,4.3475,4.3529,4.3521,4.3593,4.36,4.3606,4.3753,4.3779,4.3862,4.372,4.4129,4.4139,4.4149,4.4237,4.4258,4.4276,0,0,0,0,0,4.3161,4.3292,4.3274,4.3303,4.3449,4.3568,4.3587,4.3591,4.3535,4.36,4.363,4.3597,4.3837,4.3768,4.3797,4.3884,4.4123,4.4136,4.4149,4.4228,4.4254,4.4275,0,0,0,0,0,0,4.3236,4.3301,4.3281,4.3438,4.3498,4.3559,4.364,4.3618,4.3695,4.3685,4.3686,4.3703,4.3846,4.3879,4.3801,4.4049,4.3972,4.3991,4.4022,4.4047,4.4066,4.4055,4.3729,0,0,0,0,0,4.327,4.3361,4.3413,4.3546,4.3577,4.3604,4.3656,4.3653,4.3716,4.3741,4.3781,4.3844,4.3933,4.3992,4.4077,4.4241,4.4256,4.4316,4.4335,4.4351,4.4367,4.4457,4.4484,4.4196,4.4196,4.4196,0,0,4.3343,4.339,4.3447,4.3562,4.3609,4.3703,4.3625,4.3729,4.3799,4.3757,4.389,4.3922,4.3992,4.4144,4.4213,4.4176,4.445,4.4367,4.4379,4.4387,4.4472,4.4499,4.4524,4.4205,4.4203,4.4202,0,0,4.3523,4.3568,4.3683,4.3731,4.3802,4.3818,4.3846,4.3911,4.393,4.4063,4.4033,4.4117,4.4271,4.4322,4.4368,4.4568,4.4541,4.4596,4.4697,4.4784,4.4807,4.4827,4.4898,4.4923,4.4612,4.4612,4.4612,0,4.3605,4.3745,4.3746,4.3851,4.3903,4.3869,4.3986,4.4033,4.4128,4.4165,4.4121,4.4313,4.4358,4.4522,4.4571,4.4609,4.4641,4.4587,4.4803,4.4823,4.4842,4.491,4.4937,4.4618,4.4618,4.4617,4.4616,0,4.3842,4.394,4.4025,4.4117,4.4178,4.4289,4.4307,4.4369,4.4361,4.4383,4.4519,4.4571,4.4666,4.4705,4.4699,4.4868,4.4843,4.4802,4.4724,4.4876,4.4939,4.4965,4.4627,4.4625,4.4623,4.4622,0,0,4.4074,4.4164,4.4195,4.4236,4.4312,4.4388,4.4498,4.4589,4.4643,4.471,4.4802,4.4933,4.4895,4.4948,4.4947,4.5024,4.5178,4.4973,4.4975,4.5009,4.5368,4.5398,4.5428,4.5161,4.5166,4.517,4.5362,0,4.426,4.4451,4.4455,4.4631,4.4721,4.469,4.4786,4.4843,4.4866,4.4946,4.4972,4.5064,4.5008,4.5039,4.5113,4.5144,4.525,4.513,4.5247,4.5251,4.523,4.5462,4.5494,4.5673,4.5387,4.5391,4.5394,0,4.4503,4.4576,4.4761,4.4823,4.4862,4.4947,4.5032,4.5109,4.5173,4.5185,4.5243,4.5231,4.5343,4.5262,4.5417,4.5335,4.5383,4.5406,4.5412,4.5423,4.5332,4.5479,4.573,4.5757,4.5434,4.5431,4.5428,0,4.4653,4.4799,4.4928,4.4964,4.504,4.5101,4.5136,4.5195,4.525,4.5324,4.5359,4.5446,4.5493,4.5561,4.5572,4.5512,4.5728,4.5648,4.5741,4.5741,4.5788,4.5785,4.605,4.5819,4.5819,4.5819,4.5818,0,4.4861,4.4975,4.4996,4.5076,4.5203,4.5206,4.5333,4.5362,4.5415,4.55,4.5479,4.556,4.557,4.5654,4.5664,4.579,4.5812,4.5825,4.5826,4.5827,4.5825,4.5858,4.5846,4.5826,4.5824,4.5823,4.5821,0,4.505,4.5069,4.5208,4.5268,4.5286,4.5377,4.5429,4.5505,4.5525,4.5634,4.5659,4.5692,4.5789,4.5807,4.5922,4.5929,4.608,4.6069,4.6058,4.6057,4.6149,4.614,4.6445,4.6485,4.6228,4.623,4.6232,0,4.5181,4.5268,4.5337,4.5393,4.543,4.5519,4.5575,4.5581,4.564,4.572,4.5787,4.5881,4.5957,4.6114,4.6148,4.6236,4.6227,4.6328,4.624,4.6238,4.6228,4.6223,4.6231,4.6345,4.6347,4.635,4.6351,0,4.5412,4.5417,4.5497,4.5582,4.5648,4.5715,4.5779,4.5825,4.584,4.5908,4.6006,4.6065,4.6182,4.6277,4.6364,4.64,4.6379,4.6379,4.6405,4.6406,4.6396,4.6403,4.6104,4.6372,4.637,4.6368,4.6367,4.6366,4.5576,4.5652,4.5712,4.5803,4.5851,4.5911,4.5985,4.6014,4.6097,4.6191,4.6191,4.6299,4.6361,4.6476,4.6517,4.6602,4.657,4.6608,4.6618,4.6627,4.6636,4.6383,4.6618,4.6618,4.6617,4.6617,4.6616,0,4.5806,4.5843,4.5926,4.6015,4.6086,4.6059,4.6127,4.6189,4.6284,4.6343,4.6418,4.6532,4.6623,4.6664,4.6754,4.6814,4.6807,4.6838,4.6833,4.6842,4.6659,4.6627,4.6842,4.6842,4.6842,4.6842,4.6842,4.6842,4.5933,4.606,4.6072,4.6222,4.6259,4.6364,4.6405,4.646,4.6507,4.6634,4.671,4.6736,4.6788,4.6882,4.6964,4.6974,4.7008,4.7044,4.7049,4.6878,4.6855,4.6833,4.6803,4.7051,4.7051,4.7224,4.7226,4.7227]},{"header":{"parameterUnit":"m.s-1","parameterCategory":1,"la1":30.2991,"la2":30.254,"lo1":-89.0895,"lo2":-89.0444,"dy":0.0017,"dx":0.0017,"nx":28,"ny":28,"refTime":"2023-07-22T09:00:00:Z","depth":0,"parameterNumber":3,"parameterNumberName":"V-component_of_WINDS"},"data":[0,0,0,0,0,0,0,0,0,0,0,0,0,0,0,0,0,0,0,0,0,0,0,0,0,0,0,0,0,0,0,0,0,0,0,0,0,0,0,0,0,0,0,0,0,0,0,0,0,0,0,0,0,0,0,0,0,0,-0.1739,-0.1739,0,-0.1691,-0.1691,-0.169,-0.1666,-0.1666,-0.1666,-0.1666,-0.1615,-0.1614,-0.1613,0,0,0,0,0,0,0,0,0,0,0,0,0,-0.181,-0.1809,-0.1739,-0.1739,-0.1738,-0.1691,-0.1691,-0.169,-0.1666,-0.1666,-0.1666,-0.1666,-0.1616,-0.1614,-0.1613,0,0,0,0,0,0,0,0,0,0,0,0,0,-0.1772,-0.1809,-0.1739,-0.172,-0.1718,-0.1691,-0.169,-0.169,-0.1666,-0.1666,-0.1666,-0.1666,-0.1616,-0.1614,-0.1613,-0.1601,0,0,-0.1606,-0.1606,0,0,0,0,0,0,0,0,-0.1775,-0.177,-0.1724,-0.1722,-0.1719,-0.1684,-0.1697,-0.166,-0.1666,-0.1686,-0.1666,-0.1666,-0.1638,-0.1635,-0.1626,-0.1598,-0.1596,-0.1606,-0.1605,-0.1604,-0.1604,0,0,0,0,0,0,0,-0.1777,-0.1772,-0.172,-0.1723,-0.172,-0.1714,-0.1709,-0.169,-0.1663,-0.1684,-0.1682,-0.1677,-0.1637,-0.1628,-0.1624,-0.1596,-0.1606,-0.1605,-0.1603,-0.1603,-0.1557,-0.1557,0,0,0,0,0,0,-0.1783,-0.1774,-0.1722,-0.1719,-0.1747,-0.1713,-0.1707,-0.1695,-0.1663,-0.1658,-0.1677,-0.1676,-0.1631,-0.1627,-0.1622,-0.1607,-0.1604,-0.1602,-0.1601,-0.1557,-0.1557,-0.1557,0,0,0,0,0,0,-0.1785,-0.1779,-0.1724,-0.1746,-0.1738,-0.1712,-0.1699,-0.1695,-0.1685,-0.1657,-0.1652,-0.1672,-0.1631,-0.1625,-0.1607,-0.1605,-0.1602,-0.16,-0.1557,-0.1557,-0.1557,-0.1575,0,0,0,0,0,0,-0.1787,-0.1779,-0.1774,-0.1746,-0.1737,-0.1709,-0.1699,-0.1694,-0.1682,-0.168,-0.1652,-0.1647,-0.163,-0.161,-0.1605,-0.1602,-0.1598,-0.1557,-0.1557,-0.1557,-0.1575,-0.1576,-0.1577,0,0,0,0,0,-0.1789,-0.1781,-0.1774,-0.1768,-0.1731,-0.1709,-0.1704,-0.1685,-0.1682,-0.1677,-0.1659,-0.1648,-0.1606,-0.1608,-0.1602,-0.1599,-0.1557,-0.1557,-0.1557,-0.1574,-0.1576,-0.1577,0,0,0,0,0,0,-0.1809,-0.1777,-0.1769,-0.1751,-0.1733,-0.1705,-0.1697,-0.1687,-0.1669,-0.1668,-0.1645,-0.1639,-0.1623,-0.1609,-0.1612,-0.1586,-0.1581,-0.1579,-0.1596,-0.1597,-0.1598,-0.1601,-0.1597,0,0,0,0,0,-0.1812,-0.1797,-0.1769,-0.1756,-0.1747,-0.1724,-0.1714,-0.1701,-0.1681,-0.1673,-0.1654,-0.1635,-0.1617,-0.1606,-0.1589,-0.1573,-0.1567,-0.1568,-0.1569,-0.157,-0.1569,-0.156,-0.1561,-0.1557,-0.1557,-0.1557,0,0,-0.1816,-0.1797,-0.1789,-0.176,-0.1744,-0.1729,-0.1718,-0.1702,-0.169,-0.167,-0.1652,-0.1638,-0.1615,-0.1598,-0.1589,-0.1586,-0.1569,-0.157,-0.1571,-0.1569,-0.156,-0.1561,-0.1561,-0.1557,-0.1557,-0.1557,0,0,-0.1817,-0.1801,-0.1789,-0.1773,-0.175,-0.1735,-0.1732,-0.1705,-0.1695,-0.1676,-0.1661,-0.1647,-0.1618,-0.1602,-0.1591,-0.1587,-0.1576,-0.1582,-0.1587,-0.1579,-0.1579,-0.158,-0.1579,-0.1578,-0.1581,-0.1581,-0.1581,0,-0.1826,-0.1802,-0.1784,-0.1769,-0.1757,-0.1739,-0.1726,-0.1712,-0.1684,-0.1677,-0.1673,-0.1636,-0.162,-0.1599,-0.1598,-0.1589,-0.1586,-0.1585,-0.1581,-0.1581,-0.1581,-0.158,-0.1579,-0.1582,-0.1582,-0.1582,-0.1582,0,-0.1814,-0.1799,-0.1791,-0.1765,-0.1753,-0.1739,-0.1718,-0.1708,-0.1697,-0.1682,-0.1663,-0.1643,-0.1621,-0.1616,-0.1604,-0.1594,-0.1592,-0.1585,-0.1579,-0.1582,-0.1581,-0.158,-0.1583,-0.1583,-0.1583,-0.1583,0,0,-0.1825,-0.179,-0.1788,-0.1776,-0.1749,-0.1737,-0.1723,-0.1702,-0.1694,-0.1675,-0.1663,-0.1639,-0.1633,-0.162,-0.1607,-0.1599,-0.1599,-0.1593,-0.1592,-0.1595,-0.1586,-0.1591,-0.1591,-0.1591,-0.1591,-0.1591,-0.1588,0,-0.1822,-0.1796,-0.178,-0.176,-0.1746,-0.1729,-0.1717,-0.17,-0.1686,-0.1672,-0.1656,-0.164,-0.1633,-0.1625,-0.1617,-0.16,-0.1596,-0.16,-0.158,-0.1579,-0.1586,-0.159,-0.1595,-0.1593,-0.1587,-0.1587,-0.1587,0,-0.1815,-0.1798,-0.1777,-0.1753,-0.1747,-0.1736,-0.1716,-0.1703,-0.1683,-0.1673,-0.1659,-0.1646,-0.1631,-0.1627,-0.1606,-0.1609,-0.16,-0.1591,-0.159,-0.1587,-0.1583,-0.1587,-0.1592,-0.1592,-0.1586,-0.1586,-0.1586,0,-0.1825,-0.1797,-0.1781,-0.1772,-0.1743,-0.1736,-0.1724,-0.1704,-0.1693,-0.1676,-0.1669,-0.165,-0.1639,-0.1625,-0.1608,-0.1606,-0.1589,-0.1583,-0.1581,-0.1581,-0.1577,-0.1577,-0.1581,-0.1572,-0.1572,-0.1572,-0.1572,0,-0.1823,-0.1811,-0.1785,-0.1776,-0.1762,-0.1743,-0.173,-0.1717,-0.17,-0.1687,-0.1672,-0.1661,-0.1638,-0.1624,-0.1611,-0.1596,-0.1591,-0.1583,-0.158,-0.1584,-0.1585,-0.1578,-0.1577,-0.1572,-0.1572,-0.1572,-0.1572,0,-0.1832,-0.1814,-0.1796,-0.1771,-0.1764,-0.1756,-0.1734,-0.1724,-0.171,-0.1695,-0.169,-0.1668,-0.1651,-0.1632,-0.1609,-0.16,-0.1585,-0.158,-0.1592,-0.159,-0.1589,-0.1589,-0.1587,-0.1586,-0.1578,-0.1578,-0.1578,0,-0.1832,-0.1822,-0.1797,-0.1787,-0.1776,-0.1761,-0.175,-0.1731,-0.172,-0.1698,-0.1691,-0.1673,-0.1657,-0.1631,-0.1613,-0.1595,-0.1589,-0.159,-0.1586,-0.1592,-0.1589,-0.159,-0.1589,-0.1591,-0.1591,-0.1591,-0.1591,0,-0.1833,-0.1825,-0.181,-0.1792,-0.1779,-0.1764,-0.1748,-0.1741,-0.172,-0.1708,-0.1691,-0.1679,-0.1656,-0.1638,-0.1618,-0.1606,-0.1595,-0.1592,-0.1591,-0.1595,-0.1603,-0.1599,-0.1595,-0.1592,-0.1592,-0.1592,-0.1592,-0.1592,-0.1837,-0.1829,-0.181,-0.1793,-0.178,-0.1765,-0.1755,-0.174,-0.1725,-0.1705,-0.1695,-0.1678,-0.1659,-0.1632,-0.162,-0.1606,-0.1603,-0.1601,-0.16,-0.16,-0.1601,-0.1605,-0.1603,-0.1603,-0.1603,-0.1602,-0.1602,0,-0.1838,-0.1826,-0.1811,-0.1789,-0.1777,-0.1768,-0.1751,-0.1741,-0.1726,-0.171,-0.1695,-0.1675,-0.1659,-0.164,-0.1622,-0.1615,-0.1609,-0.1611,-0.1611,-0.1608,-0.1605,-0.1608,-0.1615,-0.1615,-0.1615,-0.1615,-0.1615,-0.1615,-0.1837,-0.1822,-0.1812,-0.179,-0.1777,-0.1761,-0.1751,-0.1739,-0.1725,-0.1704,-0.1691,-0.1679,-0.1661,-0.1642,-0.1627,-0.1622,-0.1616,-0.1618,-0.1612,-0.1609,-0.1608,-0.1607,-0.161,-0.1617,-0.1617,-0.1616,-0.1616,-0.1616]}]]